Flag for Germany Weather past 2 weeks in Homburg (Saar), Saarland, Germany

Now
32 °F

Clear.


Feels Like: 29 °F
Forecast: 30 / 56 °F
Wind: 3 mph from Northeast

Location: Saarbruecken / Ensheim

Current Time: Mar 7, 2015 at 3:18:08 AM

Latest Report: Mar 7, 2015 at 2:50 AM


Visibility: 10 mi

Pressure: 30.51 "Hg

Humidity: 80%

Dew point: 27 °F

Location of Homburg (Saar)Location

Historic Weather in Homburg (Saar) — Graph

°F

Homburg (Saar) temperature yesterday

Maximum temperature yesterday: 50 °F (at 3:20 PM)
Minimum temperature yesterday: 28 °F (at 5:20 AM)
Average temperature yesterday: 38 °F

Past Weeks' High & Low Weather Summary

 TemperatureHumidityPressure
High52 °F (Feb 20, 3:50 PM)100% (Feb 22, 4:20 AM)30.66 "Hg (Feb 22, 4:20 AM)
Low27 °F (Feb 28, 5:50 AM)39% (Feb 28, 2:50 PM)29.45 "Hg (Feb 23, 12:50 PM)
Average39 °F80%30.00 "Hg
* Reported Feb 20 2:20 AM — Mar 7 2:20 AM, Homburg (Saar), Weather by CustomWeather, © 2015

Note: Actual official high and low records may vary slightly from our data, if they occured in-between our weather recording intervals... More about our weather records

Advertising

Homburg (Saar) weather history for previous 24 hours

 ConditionsComfort  
Time TempWeatherWind HumidityBarometerVisibility
2:20 AM
Sat, Mar 7
32 °FClear.6 mph80%30.51 "Hg10 mi
1:50 AM32 °FClear.3 mph80%30.54 "Hg10 mi
1:20 AM32 °FClear.2 mph80%30.54 "Hg10 mi
12:50 AM34 °FClear.2 mph75%30.54 "Hg10 mi
12:20 AM34 °FClear.2 mph81%30.54 "Hg10 mi
11:50 PM
Fri, Mar 6
34 °FClear.2 mph81%30.54 "Hg10 mi
11:20 PM34 °FClear.2 mph75%30.54 "Hg10 mi
10:50 PM36 °FClear.No wind75%30.54 "Hg10 mi
10:20 PM36 °FClear.1 mph70%30.54 "Hg10 mi
9:50 PM36 °FClear.2 mph70%30.54 "Hg10 mi
9:20 PM37 °FPassing clouds.3 mph70%30.54 "HgN/A
8:50 PM37 °FClear.No wind70%30.54 "Hg10 mi
8:20 PM39 °FClear.2 mph65%30.54 "Hg10 mi
7:50 PM41 °FClear.3 mph57%30.57 "Hg10 mi
7:20 PM43 °FClear.3 mph53%30.57 "Hg10 mi
6:50 PM43 °FClear.6 mph57%30.57 "Hg10 mi
6:20 PM45 °FSunny.5 mph53%30.54 "Hg10 mi
5:50 PM46 °FSunny.6 mph50%30.54 "Hg10 mi
5:20 PM46 °FPartly sunny.6 mph50%30.54 "HgN/A
4:50 PM48 °FPartly sunny.3 mph46%30.54 "HgN/A
4:20 PM48 °FPartly sunny.5 mph46%30.54 "HgN/A
3:50 PM50 °FPartly sunny.5 mph47%30.54 "HgN/A
3:20 PM50 °FPartly sunny.5 mph47%30.57 "HgN/A
2:50 PM48 °FPartly sunny.2 mph46%30.57 "HgN/A
2:20 PM48 °FPartly sunny.2 mph50%30.57 "HgN/A
1:50 PM48 °FScattered clouds.5 mph50%30.60 "HgN/A
1:20 PM48 °FScattered clouds.5 mph50%30.60 "HgN/A
12:50 PM46 °FPassing clouds.2 mph50%30.63 "HgN/A
12:20 PM46 °FPassing clouds.6 mph50%30.63 "HgN/A
11:50 AM46 °FPassing clouds.5 mph53%30.63 "HgN/A
11:20 AM45 °FPassing clouds.5 mph57%30.63 "HgN/A
10:50 AM43 °FPassing clouds.5 mph61%30.63 "HgN/A
10:20 AM43 °FPassing clouds.5 mph61%30.63 "HgN/A
9:50 AM41 °FPassing clouds.3 mph70%30.63 "HgN/A
9:20 AM37 °FSunny.No wind75%30.66 "Hg10 mi
8:50 AM34 °FSunny.No wind87%30.63 "Hg10 mi
8:20 AM32 °FPartly sunny.No wind87%30.63 "HgN/A
7:50 AM30 °FPartly sunny.No wind93%30.63 "HgN/A
7:20 AM30 °FPartly sunny.1 mph86%30.63 "HgN/A
6:50 AM28 °FClear.1 mph93%30.63 "Hg10 mi
6:20 AM28 °FClear.No wind93%30.63 "Hg10 mi
5:50 AM28 °FClear.No wind93%30.63 "Hg10 mi
5:20 AM28 °FClear.No wind93%30.63 "Hg10 mi
4:50 AM30 °FClear.No wind86%30.60 "Hg10 mi
4:20 AM30 °FClear.1 mph86%30.60 "Hg10 mi
3:50 AM30 °FClear.No wind86%30.60 "Hg10 mi
3:20 AM30 °FClear.No wind86%30.60 "Hg10 mi
Weather by CustomWeather, © 2015

See weather overviewHow to use our weather pages